Hourly Weather Roundup
Issued by NWS Central Illinois

Home | Current Version | Previous Version | Text Only | Print | Product List | Glossary On
Versions: 1 2 3 4 5 6 7 8 9 10 11 12 13 14 15 16 17 18 19 20 21 22 23 24 25 26 27 28 29 30 31 32 33 34 35 36 37 38 39 40 41 42 43 44 45 46 47 48 49 50
000
NZUS43 KILX 231410
HWRILX

AREA WEATHER ROUNDUP
NATIONAL WEATHER SERVICE, LINCOLN IL
900 AM CDT SAT JUL 23 2016


CITY           SKY/WX    TMP DP  RH WIND       PRES   REMARKS
BLOOMINGTON    SUNNY     81  76  84 S6        30.03S HX  87
CHAMPAIGN      SUNNY     83  74  74 CALM      30.04R HX  89
DANVILLE       CLOUDY    80  76  88 CALM      30.01R HX  85
DECATUR        SUNNY     83  75  77 VRB5      30.02S HX  90
EFFINGHAM      PTSUNNY   81  78  92 CALM      30.04S HX  89
FLORA          SUNNY     82  77  85 CALM      30.02S HX  90
GALESBURG      MOSUNNY   80  76  88 SE5       29.99R HX  87
JACKSONVILLE   SUNNY     82  74  78 S5        30.00S HX  87
LACON          CLOUDY    80  76  86 S6        29.98S HX  86
LAWRENCEVILLE  MOSUNNY   79  77  94 CALM      30.03R FOG     HX  83
LITCHFIELD     SUNNY     80  74  82 SE6       30.02R HX  84
$$


CITY           SKY/WX    TMP DP  RH WIND       PRES   REMARKS
LINCOLN        SUNNY     82  77  83 S3        30.01S HX  91
MACOMB         SUNNY     80  76  86 S7        30.01S HX  85
MATTOON        PTSUNNY   81  74  79 S5        30.02S HX  86
MT CARMEL AP   CLOUDY    76  75  95 CALM      30.03R FOG
OLNEY-NOBLE AP MOSUNNY   79  79 100 SE3       30.03R HX  83
PARIS          PTSUNNY   80  76  87 CALM      30.04S HX  85
PEORIA         SUNNY     82  77  84 S8        29.99F HX  90
PONTIAC        SUNNY     83  79  87 S5        30.01S HX  93
RANTOUL        NOT AVBL
ROBINSON       SUNNY     80  76  86 S5        30.03S HX  85
SPRINGFIELD    SUNNY     83  75  77 S7        30.01S HX  90
TAYLORVILLE    SUNNY     81  76  84 NW3       30.02S HX  86
$$

...REGIONAL REPORTS...


CITY           SKY/WX    TMP DP  RH WIND       PRES   REMARKS
CHICAGO O`HARE PTSUNNY   84  76  76 VRB3      29.98F HX  93
KANKAKEE       NOT AVBL
MOLINE         SUNNY     84  77  79 SE3       29.97R HX  94
MOUNT STERLING SUNNY     80  73  78 S3        29.99F HX  84
MOUNT VERNON   SUNNY     82  73  74 CALM      30.02F HX  88
PITTSFIELD     SUNNY     81  74  80 S3        30.01S HX  86
QUINCY         SUNNY     82  73  74 S6        29.98F HX  87
ROCKFORD       MOSUNNY   83  77  82 S6        29.99S HX  92
$$


CITY           SKY/WX    TMP DP  RH WIND       PRES   REMARKS
BURLINGTON     SUNNY     81  77  88 S7        29.97S HX  88
CEDAR RAPIDS   SUNNY     82  80  94 E9        29.95R HX  94
DES MOINES     CLOUDY    83  76  79 S8        29.90R HX  91
KIRKSVILLE     PTSUNNY   85  76  74 SW7       29.98R HX  94
OTTUMWA        CLOUDY    84  77  79 S8        29.94S HX  94
ST LOUIS       MOSUNNY   85  72  65 S7        30.01S HX  91
$$


CITY           SKY/WX    TMP DP  RH WIND       PRES   REMARKS
TERRE HAUTE    SUNNY     80  74  81 S5        30.03R HX  85
EVANSVILLE     SUNNY     80  74  81 SE8       30.01F HX  85
INDIANAPOLIS   MOSUNNY   82  74  76 CALM      30.04R HX  88
LAFAYETTE      PTSUNNY   80  76  87 W3        30.02S HX  86
MADISON        PTSUNNY   82  78  88 CALM      29.98R HX  91
MILWAUKEE      MOSUNNY   88  74  63 CALM      29.98S HX  96
$$






USA.gov is the U.S. government's official web portal to all federal, state and local government web resources and services.